Regional Weather Roundup
Issued by NWS

Home | Current Version | Previous Version | Text Only | Print | Product List | Glossary On
Versions: 1 2 3 4 5 6 7 8 9 10 11 12 13 14 15 16 17 18 19 20 21 22 23 24 25 26 27 28 29 30 31 32 33 34 35 36 37 38 39 40 41 42 43 44 45 46 47 48 49 50
000
ASUS44 KOUN 310410
RWROK

WEATHER ROUNDUP FOR OKLAHOMA
NATIONAL WEATHER SERVICE NORMAN OK
1100 PM CDT THU OCT 30 2014

NOTE: "FAIR" INDICATES FEW OR NO CLOUDS BELOW 12,000 FEET WITH NO
      SIGNIFICANT WEATHER AND/OR OBSTRUCTIONS TO VISIBILITY.

OKZ001>007-009>012-014-015-017-310500-
NORTHWEST OKLAHOMA AND THE PANHANDLE

CITY           SKY/WX    TMP DP  RH WIND       PRES   REMARKS
GAGE           CLEAR     47  31  53 CALM      30.30R
ENID/WOODRING    N/A     55  36  47 N12       30.23R
$$

OKZ016-021>023-033>039-044-045-310500-
SOUTHWEST OKLAHOMA

CITY           SKY/WX    TMP DP  RH WIND       PRES   REMARKS
LAWTON/REGL    CLEAR     52  38  58 N9        30.23R
LAWTON/FT SILL CLEAR     59  37  43 N8        30.22R HAZE
FREDERICK      LGT RAIN  58  37  45 N12       30.21R
CLINTON        CLEAR     52  35  52 NW8       30.29R
HOBART         CLEAR     54  33  45 N7        30.26R
ALTUS AFB      CLEAR     54  34  46 N8        30.25R
$$

OKZ018>020-024>031-310500-
CENTRAL OKLAHOMA

CITY           SKY/WX    TMP DP  RH WIND       PRES   REMARKS
OKLAHOMA CITY  CLEAR     57  36  45 N7        30.22R
OKC/WILEY POST CLEAR     57  38  48 N8        30.23R
OKC/TINKER AFB CLEAR     55  38  52 N9        30.21R
STILLWATER     CLEAR     59  36  42 N9        30.21R
GUTHRIE        CLEAR     57  37  47 N6        30.22R
$$

OKZ008-013-054>072-310500-
NORTHEAST OKLAHOMA

CITY           SKY/WX    TMP DP  RH WIND       PRES   REMARKS
TULSA          CLEAR     56  40  55 NW9       30.16R
TULSA/JONES    CLEAR     62  38  40 N6        30.17R
PONCA CITY     CLEAR     51  38  60 N10       30.22R
BARTLESVILLE   CLEAR     53  39  59 CALM      30.20R
MUSKOGEE       CLEAR     56  39  53 NW9       30.15R
$$

OKZ032-040>043-046>053-073>077-310500-
SOUTH CENTRAL/SOUTHEAST OKLAHOMA

CITY           SKY/WX    TMP DP  RH WIND       PRES   REMARKS
ARDMORE/DWNTWN CLEAR     59  37  44 CALM      30.19R
MCALESTER      CLEAR     60  40  47 NW10      30.16R
$$




USA.gov is the U.S. government's official web portal to all federal, state and local government web resources and services.